AirNav   Duncan Aviation - Near you to keep you flying
 
 1445 users online  

1TA7 Thompson Field Airport
Canton, Texas, USA

GOING TO CANTON?


FAA INFORMATION EFFECTIVE 26 JANUARY 2023

Location

FAA Identifier: 1TA7
Lat/Long: 32-36-57.0000N 095-52-05.1750W
32-36.950000N 095-52.086250W
32.6158333,-95.8681042
(estimated)
Elevation: 518 ft. / 158 m (estimated)
Variation: 06E (1990)
From city: 4 miles N of CANTON, TX
Time zone: UTC -6 (UTC -5 during Daylight Saving Time)
Zip code: 75103

Airport Operations

Airport use: Private use. Permission required prior to landing
Activation date: 07/1995
Control tower: no
ARTCC: FORT WORTH CENTER
FSS: FORT WORTH FLIGHT SERVICE STATION
Attendance: MON-FRI 0800-1700
Wind indicator: yes
Segmented circle: no
Beacon: white-green (lighted land airport)
Operates sunset to sunrise.

Nearby radio navigation aids

VOR radial/distance  VOR name  Freq  Var
TYRr298/28.2TYLER VOR/DME114.2006E
CQYr028/31.3CEDAR CREEK VORTAC114.8006E
FZTr326/36.7FRANKSTON VOR/DME111.4006E
SLRr197/38.6SULPHUR SPRINGS VOR/DME109.0008E

 
NDB name  Hdg/Dist  Freq  Var  ID
CROSSROADS006/33.421502ECSZ -.-. ... --..
MESQUITE106/35.324803EPQF .--. --.- ..-.
AMBASSADOR266/38.240407EABG .- -... --.

Airport Services

Fuel available: 100LL
Parking: hangars
Airframe service: MAJOR
Powerplant service: MAJOR

Runway Information

Runway 13/31

Dimensions: 2500 x 40 ft. / 762 x 12 m
Surface: asphalt
RUNWAY 13  RUNWAY 31
Latitude: 32-37.095833N32-36.804167N
Longitude: 095-52.258333W095-51.914167W
Elevation: 513.0 ft.511.0 ft.
Traffic pattern: leftright

Airport Ownership and Management from official FAA records

Ownership: Privately-owned
Owner: THOMPSON AIRFIELD, LLC
690 VZCR 3119
EDGEWOOD, TX 75117
Phone 903-896-4647
Manager: MARK THOMPSON
690 VZCR 3119
EDGEWOOD, TX 75117
Phone 903-896-4647

Airport Operational Statistics

Aircraft based on the field: 53
Single engine airplanes: 48
Multi engine airplanes: 3
Helicopters: 2
    

Additional Remarks

PPR TO LAND. AGRICULTURE ACFT OPR ON FLD.
FOR CD CTC FORT WORTH ARTCC AT 817-858-7584.

Instrument Procedures

There are no published instrument procedures at 1TA7.

Some nearby airports with instrument procedures:

KJDD - Wood County Airport/Collins Field (20 nm E)
KTRL - Terrell Municipal Airport (21 nm W)
F44 - Athens Municipal Airport (27 nm S)
KTYR - Tyler Pounds Regional Airport (28 nm SE)
KGVT - Majors Airport (29 nm N)
 
Loc | Ops | Rwys | IFR | FBO | Links
Com | Nav | Svcs | Stats | Notes

City of Fort Worth
 
Area around 1TA7 (Thompson Field Airport)
 
Road maps at: MapQuest Bing Google
 
Aerial photo
WARNING: Photo may not be current or correct
Aerial photo of 1TA7 (Thompson Field Airport)
Photo by Jon Hicks
Taken in August 2010
looking southeast.

Do you have a better or more recent aerial photo of Thompson Field Airport that you would like to share? If so, please send us your photo.

 
Sectional chart

 
Airport distance calculator
Flying to Thompson Field Airport? Find the distance to fly.

From to 1TA7

Sunrise and sunset
Times for 07-Feb-2023
 Local
(UTC-6)
 Zulu
(UTC)
Morning civil twilight06:4912:49
Sunrise07:1513:15
Sunset18:0100:01
Evening civil twilight18:2600:26

Current date and time
Zulu (UTC)  07-Feb-2023 16:16:40
Local (UTC-6)  07-Feb-2023 10:16:40
 
METAR
KJDD 
20nm E 
071555Z AUTO 14003KT 10SM -RA SCT011 BKN065 OVC085 15/14 A3009 RMK AO2
KTRL 
21nm W 
071553Z AUTO 13009KT 10SM OVC015 16/13 A3007 RMK AO2 RAB06E35 SLP178 P0000 T01610133
KF44 
27nm S 
071555Z AUTO 13008KT 7SM BKN008 BKN029 OVC046 15/14 A3006 RMK AO2
KTYR 
28nm SE 
071553Z 15008KT 3SM -RA BR SCT009 BKN047 OVC075 16/14 A3008 RMK AO2 RAB37 SLP182 P0002 T01560139
KGVT 
29nm N 
071555Z AUTO 15013KT 10SM SCT016 OVC080 16/14 A3007 RMK AO2 TSNO T01550141
KF46 
34nm NW 
071555Z AUTO 15008G15KT 10SM SCT014 OVC085 16/15 A3006 RMK AO2 T01580150
KHQZ 
34nm W 
071550Z 13009KT 10SM OVC014 16/14 A3005
KSLR 
35nm N 
071555Z AUTO 17008KT 10SM OVC090 16/14 A3009 RMK AO2 T01600140
TAF
KTYR 
28nm SE 
071120Z 0712/0812 13007KT P6SM OVC050 FM071500 14010KT 6SM BR VCSH OVC015 FM071800 16011KT 6SM BR VCSH OVC010 FM072100 15009KT 6SM -RA BR OVC007 FM080000 14011KT P6SM VCSH OVC015 FM080300 14015KT P6SM VCSH OVC010 FM080600 16012KT 6SM -RA OVC007
NOTAMs
Click for the latest NOTAMs
NOTAMs are issued by the DoD/FAA and will open in a separate window not controlled by AirNav.

 

 
 

Would you like to see your business listed on this page?

 If your business provides an interesting product or service to pilots, flight crews, aircraft, or users of the Thompson Field Airport, you should consider listing it here.  To start the listing process, click on the button below
 
Add a business
 

Other Pages about Thompson Field Airport

www.tailwindairpark.com
 
Update a link
 
Copyright © AirNav, LLC. All rights reserved. Privacy Policy  Contact